Temp
61 61 61 61 60 60 60 60 60 60 61 61 62 62 62 62 61 58 62 74 72 72 73 72 71 70 68 63 65 62 51 45 50 55 62 64 68 75 78 74 75 78 75 79 78
61 61 61 61 61 60 60 60 60 60 60 61 61 61 61 61 58 63 74 74 73 73 72 70 67 68 62 60 62 59 49 53 61 61 61 67 63 70 74 72 71 73 78 81 77
60 60 60 60 60 60 59 59 60 60 60 61 61 61 61 60 62 70 76 74 73 75 73 72 70 67 57 58 59 55 54 60 66 67 65 66 69 70 71 67 71 71 74 77 73
60 60 60 60 60 59 59 59 59 60 60 60 60 61 61 60 55 73 76 75 74 75 72 70 67 58 54 55 61 54 64 65 68 69 66 67 70 69 72 71 78 77 78 76 72
59 59 59 59 59 59 59 59 59 59 59 59 60 61 61 60 65 76 76 75 74 74 72 68 61 58 54 58 60 58 64 67 70 68 67 70 71 71 69 74 75 75 75 73 72
58 58 58 58 58 58 58 58 58 58 58 59 60 61 62 56 75 78 77 74 75 72 73 70 68 67 60 58 57 62 64 66 65 65 66 67 67 68 73 76 73 72 72 73 73
58 58 58 58 58 58 58 58 57 57 59 60 61 65 62 64 75 73 75 72 74 77 73 73 72 67 65 62 62 64 60 64 63 64 64 70 62 65 75 73 72 70 72 73 74
58 57 57 58 58 58 58 58 57 58 60 61 62 62 59 74 72 72 72 74 77 76 75 75 74 68 62 63 64 59 55 52 60 64 66 66 55 68 72 69 72 71 73 74 72
58 57 57 57 58 58 57 57 58 60 62 62 59 60 59 75 73 77 75 76 76 76 76 84 70 63 64 55 51 52 49 51 59 65 64 63 59 70 69 70 69 70 69 73 72
57 57 57 57 57 57 56 57 61 61 63 67 71 59 65 70 77 79 77 78 74 74 71 69 61 56 51 50 43 47 48 50 53 63 61 58 59 65 66 67 69 68 69 68 71
57 57 57 57 57 56 53 57 63 61 61 65 67 67 73 79 82 76 78 75 72 67 58 61 55 50 55 56 58 56 54 52 57 64 58 57 57 63 63 61 63 66 66 65 69
57 57 57 57 56 55 52 65 65 66 58 68 71 70 78 78 71 76 79 69 65 58 59 56 51 61 62 61 59 57 52 53 58 63 60 57 58 61 63 62 63 65 66 66 66
56 56 56 56 55 55 59 67 70 66 57 64 70 68 70 73 68 71 76 70 64 59 58 53 60 67 63 59 58 55 52 53 56 59 58 55 53 56 63 63 67 66 67 66 68
55 56 56 55 59 54 64 70 67 67 48 58 66 71 72 72 65 77 78 72 62 60 59 56 64 64 59 59 58 49 61 61 58 53 46 55 41 50 55 61 62 64 64 64 65
55 56 55 55 48 58 67 64 65 66 36 66 69 81 74 69 71 70 77 70 62 62 60 57 59 59 56 60 63 59 63 58 58 51 45 48 43 49 53 57 57 60 62 62 63
55 55 55 51 47 57 62 62 66 48 38 62 70 68 67 69 70 71 70 73 70 62 59 62 64 64 62 64 64 66 57 53 47 45 39 46 45 43 49 50 53 59 61 62 63
55 54 52 57 60 59 61 61 46 38 61 59 61 65 64 62 63 66 63 60 55 49 48 56 59 62 65 57 59 57 46 38 37 36 37 47 44 45 52 56 57 56 59 59 61
53 52 52 59 56 58 59 53 36 53 55 63 63 62 57 60 60 61 58 53 57 55 48 47 46 59 64 57 51 50 47 38 32 32 37 48 41 45 54 57 58 60 58 59 59
51 48 53 60 61 58 54 40 43 51 58 56 59 53 54 59 57 57 54 53 55 54 46 44 49 61 62 61 57 49 43 48 40 37 34 40 45 50 54 55 56 56 57 57 58
42 44 54 62 61 57 48 44 49 59 60 58 49 53 47 53 54 54 53 57 56 57 53 48 44 55 60 61 58 53 53 41 37 31 29 37 43 42 45 46 51 51 52 53 57
43 49 62 63 60 51 42 45 55 62 60 55 50 49 49 46 50 50 51 53 57 55 53 48 45 48 55 49 45 46 42 42 39 36 30 28 35 47 42 44 45 47 50 51 53
39 46 61 59 49 42 43 49 55 58 59 56 53 51 48 48 47 48 46 50 56 53 46 47 41 39 45 51 54 48 42 38 29 31 30 30 32 46 44 45 46 46 49 51 53
36 38 55 56 39 39 46 53 56 56 54 53 50 53 51 46 42 49 50 55 56 52 45 45 36 30 37 43 47 43 43 41 36 31 29 26 31 46 47 46 47 46 49 49 52
40 39 43 45 43 41 41 49 51 59 55 56 53 52 47 44 46 44 47 53 55 53 55 49 35 36 30 37 39 37 41 41 36 23 29 31 37 43 43 44 46 47 47 48 49
40 37 39 35 40 40 41 48 49 50 55 55 50 51 47 40 42 40 45 47 50 52 45 41 33 35 38 42 42 41 41 41 36 36 30 35 36 41 41 42 44 47 48 49 49
37 35 38 36 41 41 42 42 46 48 51 48 47 50 46 41 44 40 42 41 42 44 38 37 31 32 33 41 41 38 41 40 40 40 37 38 36 43 45 44 45 46 47 47 48
38 39 37 37 38 38 39 42 46 48 52 53 48 45 45 48 50 49 48 46 45 41 36 35 31 27 25 36 37 29 37 39 40 41 39 33 37 40 41 43 43 44 45 47 49
MSLP
1017.43 1016.98 1016.59 1016.18 1015.74 1015.32 1014.95 1014.61 1014.26 1013.95 1013.67 1013.40 1013.14 1012.83 1012.58 1012.36 1011.97 1011.96 1010.96 1009.04 1008.95 1009.04 1009.31 1009.49 1009.80 1009.81 1009.89 1010.27 1010.44 1010.98 1012.38 1012.96 1011.76 1010.60 1009.17 1008.20 1008.06 1006.92 1006.58 1007.05 1007.35 1007.54 1007.22 1006.77 1007.55
1017.55 1017.03 1016.57 1016.14 1015.71 1015.29 1014.85 1014.47 1014.13 1013.83 1013.54 1013.29 1013.03 1012.70 1012.45 1012.25 1011.84 1010.74 1008.32 1008.29 1008.68 1008.99 1009.41 1009.44 1009.65 1009.69 1010.08 1010.27 1010.50 1011.04 1012.14 1011.87 1010.66 1009.59 1008.92 1008.27 1007.98 1007.24 1006.94 1007.28 1007.35 1007.36 1007.10 1007.22 1008.09
1017.65 1017.04 1016.48 1016.00 1015.55 1015.16 1014.77 1014.34 1013.91 1013.58 1013.31 1013.07 1012.87 1012.55 1012.32 1012.16 1011.44 1008.87 1007.60 1007.94 1008.50 1008.90 1009.30 1009.35 1009.50 1009.68 1010.08 1010.18 1010.26 1010.74 1011.06 1010.64 1009.56 1009.24 1008.91 1008.38 1007.67 1007.23 1007.09 1007.46 1007.19 1007.19 1007.31 1007.70 1008.40
1017.75 1017.11 1016.45 1015.88 1015.37 1014.94 1014.58 1014.18 1013.74 1013.35 1013.09 1012.87 1012.69 1012.42 1012.07 1011.93 1010.51 1007.82 1007.34 1007.75 1008.37 1008.99 1009.47 1009.48 1009.65 1010.01 1010.25 1010.15 1009.83 1010.24 1009.86 1009.73 1008.86 1008.37 1008.51 1007.94 1007.31 1006.82 1007.01 1007.25 1006.87 1007.07 1006.76 1007.66 1008.65
1017.71 1017.10 1016.46 1015.81 1015.19 1014.63 1014.21 1013.90 1013.55 1013.18 1012.91 1012.68 1012.46 1012.28 1012.05 1011.39 1009.53 1007.48 1007.60 1007.99 1008.65 1009.19 1009.44 1009.61 1009.86 1009.92 1009.91 1009.77 1009.71 1009.77 1009.30 1008.97 1008.35 1007.98 1007.96 1007.36 1007.24 1006.75 1006.57 1006.68 1006.58 1007.46 1007.98 1008.05 1008.73
1017.67 1017.05 1016.34 1015.61 1014.96 1014.37 1013.82 1013.47 1013.18 1012.87 1012.71 1012.52 1012.33 1012.24 1011.89 1010.77 1007.72 1007.43 1007.73 1008.36 1008.48 1008.98 1009.11 1009.34 1009.27 1009.39 1009.53 1009.48 1009.53 1009.23 1008.98 1008.67 1008.08 1007.60 1007.30 1007.25 1007.11 1006.69 1006.41 1006.73 1007.22 1007.90 1008.25 1008.44 1008.59
1017.57 1016.86 1016.16 1015.45 1014.76 1014.06 1013.46 1012.98 1012.69 1012.49 1012.32 1012.24 1012.28 1012.17 1011.49 1009.09 1007.61 1007.64 1007.86 1007.99 1008.20 1008.36 1008.56 1008.49 1008.57 1009.01 1009.13 1009.33 1009.19 1009.01 1009.01 1008.34 1007.93 1007.50 1007.17 1007.06 1007.21 1007.00 1006.34 1006.50 1007.61 1007.82 1008.10 1008.44 1008.54
1017.39 1016.63 1015.89 1015.18 1014.44 1013.65 1013.02 1012.51 1012.17 1012.02 1011.92 1011.88 1011.97 1011.98 1010.61 1007.93 1007.60 1007.61 1007.85 1007.87 1007.85 1008.03 1008.15 1008.05 1008.20 1008.69 1009.00 1009.22 1009.34 1009.48 1009.33 1008.93 1007.91 1007.35 1006.96 1006.84 1007.07 1006.60 1006.43 1006.81 1007.08 1007.80 1008.06 1008.06 1008.15
1017.21 1016.39 1015.67 1014.86 1013.97 1013.12 1012.51 1012.00 1011.64 1011.69 1011.70 1011.81 1011.96 1011.52 1009.68 1007.80 1007.62 1007.11 1007.38 1007.57 1007.65 1007.90 1007.93 1008.01 1008.37 1009.06 1009.38 1009.99 1010.47 1010.42 1009.95 1009.38 1008.38 1007.38 1007.28 1007.29 1007.23 1006.08 1006.26 1006.70 1007.10 1007.12 1007.69 1007.70 1007.80
1017.12 1016.10 1015.28 1014.47 1013.61 1012.73 1012.15 1011.66 1011.42 1011.54 1011.77 1011.69 1011.31 1011.26 1008.85 1007.28 1006.67 1006.67 1006.83 1007.29 1007.87 1008.00 1008.18 1008.32 1009.19 1009.75 1010.64 1010.93 1011.11 1010.68 1010.26 1009.58 1009.00 1007.69 1007.55 1007.57 1007.56 1006.61 1006.35 1006.60 1006.74 1007.09 1007.18 1007.64 1007.40
1016.94 1015.95 1014.98 1014.07 1013.22 1012.45 1011.89 1011.66 1011.78 1011.51 1011.19 1010.22 1009.49 1008.73 1007.44 1006.44 1006.03 1006.38 1006.63 1007.36 1008.07 1008.45 1008.82 1009.06 1010.10 1010.16 1010.29 1010.56 1010.53 1010.52 1010.33 1010.03 1008.82 1007.74 1007.76 1007.73 1007.76 1007.09 1006.61 1006.61 1007.01 1007.20 1007.30 1007.11 1006.95
1016.85 1015.82 1014.74 1013.71 1012.88 1012.23 1012.00 1011.40 1011.20 1011.00 1009.95 1008.48 1007.57 1007.07 1006.38 1006.36 1006.49 1005.96 1006.28 1007.57 1008.12 1008.75 1009.19 1009.76 1009.67 1009.25 1009.64 1009.87 1010.11 1010.09 1010.12 1009.68 1008.86 1007.94 1007.82 1007.61 1007.68 1007.28 1006.91 1006.77 1006.94 1007.14 1007.44 1007.25 1007.28
1016.83 1015.78 1014.55 1013.31 1012.50 1012.18 1011.98 1010.90 1010.28 1010.15 1010.09 1007.17 1006.40 1005.92 1005.61 1006.26 1006.43 1005.71 1006.16 1006.62 1007.42 1008.46 1008.93 1009.47 1008.35 1008.70 1009.17 1009.39 1009.57 1009.10 1009.37 1009.02 1008.74 1007.91 1007.99 1007.93 1008.07 1007.98 1007.40 1007.31 1007.03 1007.05 1007.26 1007.49 1007.48
1016.52 1015.60 1014.87 1013.22 1012.42 1012.65 1011.45 1010.28 1009.88 1009.84 1009.94 1007.37 1005.60 1004.48 1004.84 1005.09 1005.40 1004.77 1005.10 1006.04 1007.12 1007.64 1008.48 1008.87 1008.05 1008.35 1008.64 1008.75 1008.65 1008.64 1007.99 1008.29 1008.45 1008.81 1009.08 1008.82 1009.22 1008.96 1008.43 1008.02 1008.15 1008.34 1008.43 1008.39 1007.98
1016.24 1015.47 1014.52 1014.12 1013.63 1012.69 1011.32 1010.33 1009.90 1009.91 1009.72 1006.03 1004.54 1003.40 1004.23 1004.72 1004.29 1004.42 1004.41 1005.41 1006.42 1007.26 1008.11 1008.14 1007.88 1007.85 1008.05 1008.07 1007.77 1007.93 1007.67 1008.22 1008.61 1009.28 1009.92 1010.02 1010.31 1009.29 1008.89 1008.92 1009.46 1009.55 1009.32 1008.94 1008.44
1016.03 1014.89 1014.49 1014.09 1013.85 1011.96 1011.05 1010.27 1010.17 1010.96 1008.98 1006.00 1004.74 1004.33 1004.73 1004.54 1004.44 1004.21 1004.60 1004.87 1005.77 1006.99 1007.52 1007.54 1007.20 1007.22 1007.01 1007.17 1007.47 1007.65 1008.11 1008.98 1009.90 1010.41 1011.00 1010.78 1010.74 1010.53 1009.95 1010.31 1010.36 1010.10 1009.85 1009.30 1008.47
1015.52 1014.29 1014.02 1013.39 1012.47 1011.46 1010.85 1010.95 1011.67 1010.75 1008.35 1007.46 1006.44 1005.98 1005.52 1005.62 1005.57 1005.41 1005.36 1005.98 1006.80 1007.80 1008.16 1007.91 1007.43 1007.08 1006.96 1007.45 1007.82 1008.22 1009.45 1010.72 1011.53 1012.05 1012.23 1011.57 1011.53 1011.39 1011.28 1011.00 1010.72 1010.79 1010.49 1009.85 1009.00
1015.28 1013.83 1013.38 1012.44 1011.64 1011.49 1011.55 1012.22 1012.34 1010.58 1009.54 1008.56 1007.77 1007.19 1007.08 1007.05 1007.06 1006.91 1006.79 1007.59 1008.24 1008.66 1009.12 1009.13 1008.48 1007.93 1007.68 1007.86 1008.51 1009.26 1010.17 1011.62 1012.62 1013.38 1013.34 1012.38 1012.18 1011.97 1011.91 1011.70 1011.32 1011.13 1011.04 1010.48 1009.87
1015.32 1013.92 1013.28 1012.19 1011.60 1011.62 1012.52 1013.25 1012.32 1011.49 1010.72 1009.94 1008.90 1008.68 1008.71 1008.45 1008.30 1008.19 1008.76 1009.42 1009.86 1009.82 1010.28 1010.29 1009.75 1009.04 1008.85 1008.74 1008.95 1009.97 1010.96 1011.77 1013.03 1013.94 1014.19 1013.37 1012.76 1012.65 1012.44 1012.05 1011.83 1011.82 1011.58 1011.22 1010.68
1016.95 1015.76 1013.42 1011.91 1011.59 1012.12 1013.33 1013.29 1012.53 1011.57 1011.04 1010.67 1010.73 1010.57 1010.46 1010.40 1009.89 1009.72 1009.99 1010.80 1010.90 1010.88 1010.90 1011.28 1011.05 1010.43 1010.01 1009.65 1010.16 1010.63 1011.59 1012.78 1014.26 1015.17 1015.21 1014.30 1013.67 1013.09 1013.77 1013.65 1013.06 1012.69 1012.63 1012.30 1011.67
1017.35 1015.88 1012.96 1012.05 1011.95 1013.27 1014.06 1013.68 1012.49 1011.72 1011.38 1011.45 1011.68 1011.85 1012.08 1012.11 1011.82 1011.63 1012.03 1012.26 1012.02 1012.35 1012.14 1012.65 1012.82 1012.05 1011.06 1011.64 1012.06 1012.25 1012.76 1013.96 1015.24 1016.13 1016.37 1015.97 1014.84 1014.42 1014.98 1015.04 1014.72 1014.24 1013.83 1013.23 1012.58
1019.08 1017.09 1013.35 1012.45 1013.82 1015.12 1014.86 1014.09 1012.95 1012.19 1011.82 1011.89 1012.15 1012.68 1012.96 1013.02 1012.96 1012.92 1013.67 1013.72 1013.28 1013.23 1013.80 1014.39 1014.53 1014.39 1013.58 1013.07 1012.87 1013.08 1014.43 1015.40 1016.72 1017.58 1017.64 1017.16 1015.80 1015.27 1015.07 1015.20 1015.23 1015.20 1014.91 1014.25 1013.47
1020.74 1018.99 1014.64 1013.99 1015.91 1016.41 1015.44 1014.30 1013.31 1012.55 1012.56 1012.48 1013.06 1013.13 1013.45 1013.78 1014.00 1013.81 1014.10 1014.53 1014.22 1014.33 1014.85 1015.14 1016.15 1016.23 1015.52 1014.94 1014.27 1014.62 1015.33 1016.07 1017.19 1018.03 1017.96 1017.80 1016.16 1015.54 1015.47 1015.57 1015.52 1015.36 1014.97 1014.57 1013.84
1021.33 1020.42 1018.25 1017.49 1018.03 1017.65 1016.68 1015.22 1013.85 1012.78 1012.95 1012.98 1013.45 1013.73 1014.05 1014.48 1014.62 1014.81 1014.94 1014.94 1015.01 1015.09 1015.44 1015.86 1016.85 1017.03 1016.68 1016.10 1015.86 1015.88 1015.96 1016.40 1017.17 1018.38 1017.98 1017.34 1016.39 1016.02 1015.89 1015.73 1015.53 1015.36 1015.16 1014.83 1014.56
1022.14 1022.22 1021.67 1020.33 1019.01 1018.85 1017.89 1016.40 1014.90 1013.64 1013.44 1013.40 1013.95 1014.25 1014.43 1014.93 1015.20 1015.46 1015.77 1015.86 1015.78 1015.92 1016.39 1017.12 1017.79 1017.72 1017.28 1016.82 1016.60 1016.52 1016.46 1016.60 1017.15 1017.38 1017.96 1017.14 1016.79 1016.42 1016.40 1016.42 1016.23 1016.04 1015.73 1015.35 1014.99
1023.22 1023.23 1022.50 1021.61 1020.25 1019.36 1018.41 1017.45 1016.38 1015.31 1014.22 1014.20 1014.39 1014.70 1014.84 1015.18 1015.35 1015.72 1015.97 1016.34 1016.46 1016.52 1017.10 1017.95 1018.40 1018.51 1018.37 1017.52 1017.05 1016.73 1016.36 1016.29 1016.43 1016.64 1016.83 1016.91 1016.67 1016.21 1016.26 1016.40 1016.46 1016.29 1015.94 1015.45 1014.91
1023.70 1023.41 1023.41 1022.12 1021.12 1020.18 1019.38 1018.56 1017.31 1016.52 1015.60 1015.13 1015.10 1015.07 1015.03 1014.91 1015.07 1015.27 1015.60 1015.98 1016.13 1016.66 1017.58 1018.32 1018.85 1019.57 1019.33 1018.49 1017.59 1016.84 1015.80 1015.72 1015.91 1016.09 1016.43 1016.82 1016.79 1016.82 1016.65 1016.53 1016.30 1016.02 1015.77 1015.35 1015.03
Wind_Speed
20 19 18 17 16 17 17 16 14 13 12 12 11 10 10 10 12 1 5 10 4 6 4 1 2 1 2 1 3 4 6 1 4 3 6 4 10 6 2 8 3 6 6 4 9
21 20 20 19 17 16 17 16 15 13 12 11 11 11 10 10 2 6 11 8 6 10 3 4 2 2 3 1 1 5 4 8 7 4 4 8 2 5 4 1 3 3 4 6 8
21 21 20 21 20 16 16 16 15 13 12 10 9 11 10 7 4 7 3 11 12 9 0 1 2 2 2 1 2 3 6 5 8 8 5 4 6 1 5 4 4 9 8 10 5
23 23 22 22 21 19 17 16 15 14 12 10 10 10 11 1 1 4 1 13 12 7 2 3 4 2 1 3 3 2 7 6 8 6 5 5 3 2 8 6 6 9 17 12 8
23 23 23 22 21 20 17 16 15 13 12 10 9 8 2 3 9 3 10 12 7 6 5 4 3 2 3 2 2 4 6 4 10 10 8 5 8 5 3 3 3 9 9 14 9
22 22 23 23 22 20 18 16 13 11 10 9 7 7 1 4 5 3 9 6 6 6 5 7 6 7 3 2 1 2 4 7 5 5 5 9 5 3 5 7 9 12 14 13 13
23 23 23 22 22 21 19 18 14 11 8 6 5 3 1 15 3 1 8 6 6 5 5 5 4 3 3 6 1 4 5 7 3 1 2 8 3 6 8 0 9 13 15 14 15
24 24 23 23 22 21 21 17 15 11 6 5 4 1 8 5 3 4 4 4 4 5 3 4 4 3 3 1 8 5 4 4 5 1 2 4 8 11 9 4 8 9 9 10 10
26 25 25 24 24 23 20 20 12 4 2 8 3 3 10 5 3 5 5 6 2 2 6 5 1 2 6 4 6 5 4 4 9 4 2 3 7 14 9 10 9 8 8 10 10
27 26 26 25 25 23 22 9 7 6 2 3 2 2 4 4 4 6 5 5 3 4 3 4 5 3 4 5 5 4 3 2 4 6 3 4 8 11 3 8 11 8 7 8 9
28 28 28 27 26 23 9 2 5 3 1 7 7 7 7 4 3 4 5 6 2 3 4 2 2 7 9 8 6 3 3 5 8 9 1 5 5 9 6 2 4 7 8 9 12
28 29 29 28 26 19 1 4 1 2 11 13 18 14 17 4 5 8 10 7 7 8 3 4 8 9 4 3 6 6 5 10 9 11 6 4 6 5 4 3 3 6 8 9 8
28 29 30 30 29 2 2 3 5 0 3 9 7 7 7 11 10 13 10 5 6 7 6 8 12 5 3 5 7 7 6 7 10 2 3 2 6 4 4 3 6 3 5 5 9
30 30 27 32 3 5 4 7 8 1 5 9 5 7 6 8 6 10 9 8 3 12 7 6 6 8 5 7 2 3 7 6 3 3 4 3 5 5 3 7 4 10 13 11 11
32 29 27 12 3 2 5 10 8 6 4 4 3 2 6 8 3 5 7 5 10 7 8 10 4 5 4 8 4 9 5 3 4 3 3 4 3 8 3 7 9 11 11 11 10
34 32 25 2 1 6 9 8 5 7 8 5 4 2 5 3 2 2 4 4 5 5 1 11 4 6 7 3 5 5 1 6 5 4 2 5 3 3 3 1 3 9 11 11 13
35 34 14 2 2 5 6 5 5 4 6 5 4 6 2 6 7 7 4 5 6 4 4 5 6 2 2 4 5 6 6 4 5 5 5 4 3 5 4 4 4 6 11 11 12
37 27 3 5 3 5 4 7 1 2 3 4 5 8 4 6 4 8 4 3 8 5 3 5 6 5 5 4 3 3 5 6 6 3 4 4 4 4 1 1 3 5 7 9 14
28 6 4 4 3 2 7 4 6 3 5 8 8 4 5 6 3 3 4 3 5 6 3 1 2 4 7 4 3 2 4 2 4 2 4 4 1 3 5 13 15 14 15 17 15
5 5 5 7 2 6 6 4 3 3 5 4 5 7 5 6 5 6 4 6 3 7 1 1 2 2 2 3 9 6 1 3 4 2 5 4 4 2 8 9 13 17 15 13 15
4 5 5 11 4 6 4 5 2 3 3 5 4 5 5 6 5 6 10 5 9 5 8 6 2 6 1 4 3 4 3 5 3 4 6 2 6 6 3 2 5 9 12 15 15
4 4 5 7 6 2 1 3 5 3 5 5 5 3 2 3 4 4 5 5 8 3 4 5 2 2 4 7 3 3 4 5 6 3 2 3 6 3 5 4 5 6 6 9 12
3 4 6 5 4 3 6 4 2 4 3 2 2 2 2 2 1 3 5 4 8 5 2 1 2 2 7 6 4 7 3 4 3 3 6 4 6 5 5 5 6 7 8 7 11
3 6 7 6 2 3 5 4 5 4 3 1 4 5 4 4 4 2 4 2 4 2 10 4 3 7 7 5 1 4 5 1 5 3 3 6 10 9 8 9 10 9 8 8 8
4 2 2 5 4 4 3 5 5 1 1 3 3 2 3 2 3 2 1 4 3 4 4 5 4 3 4 5 2 4 6 6 6 7 7 4 7 7 3 4 5 5 7 8 6
3 4 5 4 5 5 5 5 8 10 1 1 4 4 3 5 5 4 3 3 5 2 3 2 3 2 5 7 6 6 8 9 9 7 7 7 7 2 4 4 4 7 6 8 8
3 2 3 5 5 3 2 5 4 7 4 5 2 3 3 5 8 8 7 5 8 6 5 4 5 3 4 2 2 5 5 5 4 2 2 5 4 4 5 7 6 6 6 8 7
Wind_Direction
0 356 354 350 346 343 340 335 331 327 321 315 312 308 309 314 308 134 245 217 173 139 128 112 133 192 94 319 150 128 61 183 244 200 273 329 21 307 85 133 210 195 180 210 105
357 353 352 349 346 341 338 334 331 326 319 314 312 309 312 324 269 233 238 194 181 143 151 184 130 40 18 281 124 99 121 216 215 225 267 317 28 277 82 256 341 36 352 138 124
354 351 349 346 344 340 336 332 329 324 317 313 308 306 308 320 326 252 205 179 157 160 12 112 80 58 11 290 193 152 190 218 256 241 275 268 310 209 100 339 224 173 201 172 188
351 349 346 343 340 337 334 330 326 323 316 309 305 306 309 265 196 258 7 162 141 130 107 96 53 60 228 222 218 185 233 192 269 228 212 235 234 314 138 220 264 211 184 170 185
346 345 343 339 336 332 329 326 323 319 311 304 302 310 314 15 253 278 106 125 110 119 173 151 143 191 249 237 193 203 259 267 263 279 219 266 244 190 260 191 103 123 179 195 191
343 342 339 337 333 329 325 320 316 312 305 293 288 303 91 284 247 194 135 132 150 164 176 162 201 197 278 297 162 248 244 271 287 282 230 163 248 132 251 144 129 153 191 205 201
340 340 338 335 330 327 321 319 315 305 289 272 269 263 156 238 327 197 161 187 175 181 195 204 194 176 163 315 228 277 313 340 269 233 218 173 198 204 235 134 149 181 196 212 212
340 338 337 335 328 325 323 318 311 298 262 215 195 230 250 247 276 163 151 297 229 231 246 254 192 206 164 280 2 2 49 5 279 29 294 111 271 255 240 235 250 183 191 204 215
338 337 335 333 328 327 323 318 305 262 162 158 134 155 266 315 223 217 154 219 90 242 257 277 277 100 36 78 0 0 246 281 319 201 217 192 279 272 159 181 224 252 194 219 219
337 335 334 333 331 326 323 313 113 126 166 203 268 21 270 232 196 191 212 218 252 351 329 158 47 74 45 76 216 249 280 304 255 289 139 285 265 281 253 180 215 240 259 219 224
337 335 333 332 330 328 334 117 17 7 212 216 215 226 272 228 248 186 170 117 96 75 196 13 81 233 231 197 211 269 262 270 279 270 152 228 257 295 300 113 306 278 270 247 212
336 335 333 330 329 328 226 63 237 260 295 227 243 242 246 75 316 288 121 150 142 213 180 22 243 231 249 225 222 239 239 270 278 265 175 302 306 304 6 321 254 262 252 264 295
335 335 332 328 323 353 309 231 328 226 272 293 219 228 208 153 222 259 162 169 167 185 178 179 241 59 210 286 267 244 194 233 223 344 331 19 340 351 327 1 315 284 249 270 258
334 334 337 327 26 324 295 318 335 180 28 278 252 256 144 138 229 206 185 146 198 194 181 213 273 249 265 259 216 275 225 246 247 103 240 55 273 295 312 311 348 357 22 358 347
332 335 335 328 271 342 320 324 313 58 335 255 239 151 155 163 192 222 176 118 182 189 121 239 237 253 202 227 207 240 311 252 228 173 90 340 73 266 265 13 13 16 3 353 342
332 329 334 130 292 254 303 306 49 47 254 316 335 300 157 207 271 99 152 89 166 186 164 230 212 178 219 243 207 252 311 37 48 94 26 232 133 302 35 308 6 6 357 356 354
333 325 322 237 233 317 322 36 47 162 320 342 342 344 356 355 15 4 155 166 180 139 239 297 250 286 89 57 360 57 57 341 335 0 217 279 21 247 68 34 52 350 344 343 355
331 323 254 236 291 334 50 50 213 275 310 348 339 316 79 17 34 352 39 54 27 13 140 162 302 18 335 138 174 49 137 156 222 196 237 332 245 193 223 339 341 358 346 357 2
327 332 298 309 255 73 66 78 215 314 333 338 324 30 4 359 38 54 66 67 32 30 111 114 217 9 29 24 72 292 58 199 130 29 86 237 338 241 1 14 18 18 18 3 353
333 335 287 321 35 62 73 220 253 353 340 7 8 23 353 359 20 18 75 350 12 17 21 198 328 90 299 13 9 92 237 25 9 239 233 263 231 199 14 4 4 6 0 358 351
21 14 269 334 67 48 140 239 307 2 47 37 32 9 26 9 1 351 25 21 360 1 41 31 62 295 340 77 165 358 12 62 116 134 198 215 253 95 88 58 21 353 352 350 354
6 359 318 348 50 1 60 303 284 359 15 36 104 83 80 3 351 3 80 20 335 8 53 346 108 290 282 340 304 113 108 98 114 253 258 192 261 143 106 45 23 352 339 343 348
15 281 315 41 82 335 312 300 1 14 9 54 67 59 63 51 322 59 85 7 22 48 71 17 5 23 334 352 2 75 87 123 115 87 219 178 262 181 84 29 357 350 351 350 352
27 349 326 31 17 19 344 288 332 346 66 98 112 75 60 39 19 346 16 97 4 56 55 87 152 166 196 227 186 316 325 272 142 122 240 237 295 322 343 344 349 344 342 339 344
31 299 201 313 327 338 297 318 314 265 78 37 93 65 160 170 353 32 359 323 331 353 59 96 203 199 253 255 246 234 243 246 210 217 200 251 265 264 241 232 254 276 306 313 322
49 19 349 287 297 321 351 8 1 338 149 138 128 157 133 160 188 214 188 188 232 324 99 3 216 136 238 242 235 246 241 239 246 252 248 245 265 165 276 314 290 282 283 286 298
318 339 99 289 326 353 13 329 356 350 357 58 199 194 226 233 191 205 199 201 215 197 155 180 144 95 268 356 12 314 243 216 229 227 235 234 230 4 315 306 296 304 281 261 291